Location: Rounton
(54.4000°N, 1.3500°W)
Time: 13:50:09
(UTC+01:00)

deb Delta 126 - Pass Details

Date: 02 July 2022
Orbit: 1120 x 1970 km, 101.5° (Epoch: 15 August)

Event Time Altitude Azimuth Distance (km) Brightness Sun altitude
Rises 22:29:25 0° 22° (NNE) 5,047 ? -5.3°
Reaches altitude 10° 22:32:21 10° 19° (NNE) 4,141 ? -5.6°
Maximum altitude 22:42:15 57° 305° (NW) 2,211 ? -6.4°
Drops below altitude 10° 22:52:47 10° 232° (SW) 4,389 ? -7.2°
Sets 22:56:00 0° 228° (SW) 5,365 ? -7.5°
